Retour au catalogue

STARLINK-35260

ActifCommunicationsVLEO
NORAD 65751·PAYLOAD·🇺🇸 United States

Lancé Sep 25, 2025 depuis Cape Canaveral Space Force Station

Loading…

Prochains Passages (prochaines 24 heures)

TLE

FraisSource: CelesTrak SupGP

Époque: Sep 14, 2026, 22:40 UTC

1 65751C 25216T   26257.94493056 -.00049797  00000+0 -14708-2 0  2578
2 65751  53.1578 171.6143 0001280  77.9990 169.0847 15.34424701    17

Suivez STARLINK-35260 en temps réel avec AllMySat

Download on the App Store